Regional Weather Roundup
Issued by NWS State College, PA

Home | Current Version | Previous Version | Graphics & Text | Print | Product List | Glossary Off
Versions: 1 2 3 4 5 6 7 8 9 10 11 12 13 14 15 16 17 18 19 20 21 22 23 24 25 26 27 28 29 30 31 32 33 34 35 36 37 38 39 40 41 42 43 44 45 46 47 48 49 50

048
ASUS41 KCTP 070810
RWRCTP

REGIONAL WEATHER ROUNDUP
NATIONAL WEATHER SERVICE STATE COLLEGE PA
300 AM EST WED DEC 07 2016

Note: "fair" indicates few or no clouds below 12,000 feet with no
significant weather and/or obstructions to visibility.

* = STATION THAT DOES NOT REPORT PRECIPITATION /E.G. RAIN...SNOW...ETC/
    THUNDER OR FOG.

PAZ002>004-007>009-013>016-020>023-029>032-070900-
WESTERN PENNSYLVANIA

CITY           SKY/WX    TMP DP  RH WIND       PRES   REMARKS
ERIE           CLOUDY    43  35  73 W13G23    29.86R
MEADVILLE      CLOUDY    37  35  92 SW10      29.88R
FRANKLIN*        N/A     36  32  87 W8        29.89
NEW CASTLE     CLOUDY    38  33  82 W13       29.93R
BEAVER COUNTY  NOT AVBL
BUTLER*        CLOUDY    36  34  93 W9G18     29.94R
PITTSBURGH INT CLOUDY    39  34  82 W14       29.93R
PITTSBURGH     CLOUDY    37  33  85 W15G23    29.93R
INDIANA*       CLOUDY    41  39  93 W8G17     29.91R
LATROBE        LGT RAIN  39  39 100 W15G21    29.92R
WASHINGTON CO* CLOUDY    37  30  75 W6        29.96R
$$

PAZ004>006-010>012-017>019-024>028-033>037-041-042-045-046-049>053-070900-
CENTRAL PENNSYLVANIA

CITY           SKY/WX    TMP DP  RH WIND       PRES   REMARKS
BRADFORD       CLOUDY    34  34 100 SW3       29.81R FOG
DUBOIS         CLOUDY    38  36  92 W9        29.83R FOG
CLEARFIELD     FOG       34  34 100 CALM      29.85R VSB 1
JOHNSTOWN      LGT RAIN  38  37  97 W10       29.84R VSB 3/4
ALTOONA        CLOUDY    37  36  96 W5        29.88R
STATE COLLEGE  LGT RAIN  35  34  99 CALM      29.87R
WILLIAMSPORT   CLOUDY    38  33  82 CALM      29.89S HAZE
SELINSGROVE    FOG       35  35 100 CALM      29.91R VSB 1
FT INDIANTOWN  CLOUDY    37  37 100 CALM      29.90R FOG
CAPITAL CITY   CLOUDY    39  36  89 CALM      29.90R FOG
HARRISBURG     DRIZZLE   38  38 100 NW5       29.90R FOG
YORK           CLOUDY    38  38 100 NW5       29.90S FOG
$$

PAZ038>040-043-044-047-048-054-055-060>062-067>071-070900-
EASTERN PENNSYLVANIA

CITY           SKY/WX    TMP DP  RH WIND       PRES   REMARKS
SCRANTON       FOG       35  34  96 CALM      29.87R VSB 1/2
MOUNT POCONO   CLOUDY    31  30  96 E6        29.83R
ALLENTOWN      LGT RAIN  38  34  85 E3        29.89R
QUAKERTOWN*    CLOUDY    36  36 100 N5        29.89R
READING        CLOUDY    37  35  92 N3        29.89R
LANCASTER      CLOUDY    38  38 100 N5        29.89R FOG
COATESVILLE    MIX PCPN  37  37 100 N7        29.89R
POTTSTOWN      LGT RAIN  38  37  97 N5        29.89S
BLUE BELL      CLOUDY    37  36  93 CALM      29.87R
DOYLESTOWN     CLOUDY    39  38  96 N7        29.86R
WILLOW GROVE   NOT AVBL
NORTH PHILA    CLOUDY    41  39  93 N9        29.88R
PHILADELPHIA   LGT RAIN  42  39  89 N12       29.87S
$$




USA.gov is the U.S. government's official web portal to all federal, state and local government web resources and services.